Morrisville, VT

3:10 AM EST on November 13, 2019 (GMT -0500)
Morrisville Stowe State

Weather History for KMVL - October, 2019

Change the Weather History Date:

Tuesday, October 22, 2019

  Actual Average Record
Temperature  
Mean Temperature 46 °F 44 °F  
Max Temperature 57 °F 54 °F 79 °F (2007)
Min Temperature 34 °F 33 °F 23 °F (2002)
Degree Days  
Heating Degree Days 19 21  
Month to date heating degree days 388 391  
Since 1 July heating degree days 678 723  
Cooling Degree Days 0 0  
Month to date cooling degree days 0 0  
Year to date cooling degree days 254 265  
Moisture  
Dew Point 41 °F    
Average Humidity 72    
Maximum Humidity 97    
Minimum Humidity 53    
Precipitation  
Precipitation 0.28 in 0.10 in 0.41 in (1996)
Month to date precipitation 5.26 2.23  
Year to date precipitation 35.82 29.36  
Sea Level Pressure  
Sea Level Pressure 30.04 in    
Wind  
Wind Speed 4 mph ()    
Max Wind Speed 18 mph    
Max Gust Speed 26 mph    
Visibility 9.7 miles    
Events Rain    
T = Trace of Precipitation, MM = Missing Value Source: Averaged Metar Reports

Daily Weather History Graph

Daily Weather History Graph

Search for Another Location

Airport or City:

Astronomy

Oct. 22, 2019 Rise Set
Actual Time 7:14 AM EDT 5:54 PM EDT
Civil Twilight 6:44 AM EDT 6:24 PM EDT
Nautical Twilight 6:10 AM EDT 6:58 PM EDT
Astronomical Twilight 5:36 AM EDT 7:32 PM EDT
Moon 12:00 AM EDT (10/22) 3:20 PM EDT (10/22)
Length of Visible Light 11h 39m
Length of Day
10h 40m
Last Quarter, 37% of the Moon is Illuminated
Oct 22
Last Quarter
Oct 27
New
Nov 4
First Quarter
Nov 12
Full
Nov 19
Last Quarter

Hourly Weather History & Observations

Time (EDT) Temp. Windchill Dew Point Humidity Pressure Visibility Wind Dir Wind Speed Gust Speed Precip Events Conditions
12:54 AM 36.0 °F - 35.1 °F 97% 30.16 in 10.0 mi Calm Calm - N/A   Clear
1:54 AM 35.1 °F 32.2 °F 34.0 °F 96% 30.17 in 10.0 mi SW 3.5 mph - N/A   Clear
2:54 AM 35.1 °F - 33.1 °F 92% 30.15 in 10.0 mi Calm Calm - N/A   Clear
3:54 AM 36.0 °F - 35.1 °F 97% 30.14 in 10.0 mi Calm Calm - N/A   Clear
4:54 AM 37.0 °F - 36.0 °F 96% 30.13 in 10.0 mi Calm Calm - N/A   Clear
5:54 AM 39.9 °F - 37.9 °F 93% 30.12 in 10.0 mi Calm Calm - N/A   Clear
6:54 AM 50.0 °F - 43.0 °F 77% 30.12 in 10.0 mi SW 5.8 mph - N/A   Clear
7:54 AM 50.0 °F - 43.0 °F 77% 30.12 in 10.0 mi SSW 6.9 mph - N/A   Clear
8:54 AM 52.0 °F - 43.0 °F 71% 30.11 in 10.0 mi South 8.1 mph - N/A   Clear
9:54 AM 53.1 °F - 44.1 °F 71% 30.09 in 10.0 mi SSW 5.8 mph - N/A   Clear
10:54 AM 55.9 °F - 43.0 °F 62% 30.07 in 10.0 mi SSW 9.2 mph - N/A   Clear
11:54 AM 57.9 °F - 43.0 °F 58% 30.07 in 10.0 mi SSW 9.2 mph 18.4 mph N/A   Clear
12:54 PM 57.9 °F - 43.0 °F 58% 30.06 in 10.0 mi South 8.1 mph - N/A   Clear
1:54 PM 57.0 °F - 41.0 °F 55% 30.04 in 10.0 mi South 13.8 mph 23.0 mph N/A   Clear
2:54 PM 57.0 °F - 39.9 °F 53% 30.02 in 10.0 mi South 13.8 mph 20.7 mph N/A   Partly Cloudy
3:54 PM 55.9 °F - 39.0 °F 53% 29.98 in 10.0 mi South 10.4 mph 19.6 mph N/A   Scattered Clouds
4:54 PM 55.9 °F - 39.9 °F 55% 29.98 in 10.0 mi SSE 10.4 mph - N/A   Mostly Cloudy
5:54 PM 55.9 °F - 39.0 °F 53% 29.96 in 10.0 mi South 10.4 mph - N/A   Overcast
6:54 PM 55.9 °F - 39.9 °F 55% 29.97 in 10.0 mi South 5.8 mph - N/A   Overcast
7:54 PM 55.9 °F - 44.1 °F 64% 29.96 in 10.0 mi SSW 10.4 mph - N/A   Overcast
8:36 PM 55.0 °F - 43.0 °F 64% 29.94 in 10.0 mi Variable 4.6 mph - N/A   Overcast
8:54 PM 54.0 °F - 44.1 °F 69% 29.95 in 10.0 mi South 4.6 mph - N/A   Overcast
9:54 PM 54.0 °F - 45.0 °F 72% 29.91 in 10.0 mi Variable 4.6 mph - 0.00 in Rain Light Rain
10:54 PM 52.0 °F - 46.9 °F 83% 29.90 in 6.0 mi SW 5.8 mph - 0.02 in Rain Rain
11:54 PM 51.1 °F - 48.0 °F 89% 29.89 in 7.0 mi Calm Calm - 0.15 in Rain Rain